Theta_e
312 312 315 314 320 331 328 324 322 322 320 313 315 316 319 322 322 321 322 328 330 331 332 333 335 334 334 338 345 348 347 348 350 346 343 343 339 339 340 339 339 337 340 340 339 338 337 338 338 338 338 338 338 337 337 337 336 335 334 334 335 335 336 336 336 336 337 338 339 340 339 340 339 339 338 338 338 338 338 337 338 337 338 339 340 341 342 342 341 341 341 341 342 341 338 337 337
316 317 321 322 323 328 326 321 319 317 316 311 313 316 319 322 323 322 328 333 334 334 334 335 334 335 333 336 342 347 347 343 343 344 342 339 339 340 338 338 338 338 339 339 339 338 338 339 338 338 339 338 336 335 335 335 335 335 335 335 335 335 335 335 335 335 336 336 336 338 339 339 339 339 339 338 338 337 338 337 337 337 338 340 340 341 342 342 341 341 341 342 342 340 337 336 337
321 322 323 324 325 326 326 320 316 313 313 311 312 318 319 321 326 329 334 335 335 335 334 334 333 335 334 339 343 345 345 339 338 338 338 339 340 339 337 338 339 339 339 339 338 338 338 338 338 337 337 334 331 331 331 332 334 334 334 335 335 335 334 334 334 334 334 334 333 335 336 337 337 339 339 339 338 337 339 339 338 338 338 340 341 341 342 341 341 341 341 342 342 340 338 339 338
321 325 323 324 324 325 328 322 316 312 312 311 312 321 325 326 332 334 335 333 334 333 333 333 334 339 343 347 343 343 342 338 337 337 338 339 339 339 338 339 339 339 340 340 339 338 338 336 335 333 330 327 326 328 328 330 331 333 333 334 334 334 333 333 333 333 333 333 332 333 335 335 336 339 339 339 338 338 338 337 338 339 339 340 341 341 342 341 341 341 341 341 341 340 339 340 339
320 328 327 323 323 324 327 324 319 313 311 312 313 323 333 332 336 337 336 334 332 331 333 333 336 342 344 342 341 343 341 338 338 337 339 339 338 338 338 339 339 339 339 339 337 334 332 330 329 327 325 325 326 326 327 328 329 330 332 332 332 332 332 332 332 333 333 332 332 331 334 336 337 338 338 339 339 338 337 336 338 340 340 340 340 340 341 341 340 340 340 340 340 340 339 339 338
324 330 327 322 322 324 323 320 317 313 315 322 324 330 335 333 335 335 335 333 330 333 332 333 339 343 343 339 338 339 338 338 338 338 340 339 338 337 338 339 338 338 335 334 335 329 324 324 325 325 326 327 328 327 327 327 328 329 331 332 332 332 332 332 332 332 331 331 332 331 332 335 337 338 336 339 339 339 338 337 338 340 340 340 340 340 340 340 340 340 339 339 339 339 338 337 337
327 327 323 322 322 324 321 318 316 315 323 333 333 334 335 333 334 332 332 332 331 332 331 335 339 342 342 340 339 337 337 337 338 338 339 338 337 338 339 338 338 337 332 330 330 324 322 324 326 328 329 330 330 329 327 326 327 328 329 331 333 334 333 333 332 331 331 331 331 332 331 332 336 337 336 338 339 338 338 338 338 339 339 339 339 339 339 339 340 340 339 338 338 337 335 336 337
322 321 320 323 323 323 322 320 319 319 327 335 336 335 335 333 334 333 333 333 332 333 335 338 337 340 340 339 341 338 337 338 338 338 338 337 337 338 338 338 337 337 335 334 329 324 325 327 327 330 331 332 333 332 331 329 329 328 328 330 332 333 333 333 333 333 333 332 332 332 332 330 334 337 336 337 338 338 338 338 338 338 338 339 338 337 336 338 339 340 340 338 338 336 335 336 337
319 321 320 320 321 321 318 318 321 325 330 333 335 334 334 333 334 335 335 335 333 335 338 337 335 340 341 340 341 338 338 338 337 338 338 337 338 337 337 336 336 337 338 337 332 328 328 328 328 329 330 332 333 333 333 332 332 332 331 331 332 332 332 332 333 334 332 332 332 333 333 330 334 337 337 336 337 337 338 338 338 338 338 338 339 336 333 335 338 339 339 339 338 336 337 337 336
320 321 321 321 320 318 316 317 323 331 336 336 334 333 332 333 334 335 335 334 333 337 338 336 337 341 341 341 340 338 337 337 337 338 339 339 339 337 336 335 335 337 338 338 335 332 330 329 329 328 328 328 329 330 331 332 332 332 332 332 333 332 332 331 331 332 331 330 331 333 332 331 334 337 337 337 337 338 338 338 338 338 338 338 339 337 333 333 336 339 339 340 339 338 337 336 335
322 321 323 323 319 319 318 322 331 335 336 337 335 333 333 333 333 334 333 333 337 339 337 337 340 341 340 341 339 336 335 335 337 338 338 339 338 337 335 334 333 334 336 337 336 337 335 332 332 332 331 329 327 326 328 330 330 330 331 331 331 331 331 331 331 331 330 329 330 332 332 331 332 335 337 337 337 337 337 338 337 337 338 338 338 337 336 334 336 337 339 339 338 337 336 335 334
322 322 326 324 323 327 324 326 335 338 334 335 335 332 332 333 334 335 332 336 338 337 337 336 339 341 340 341 338 334 334 335 336 336 336 337 336 336 334 334 333 333 334 335 335 337 337 336 336 335 334 333 331 326 324 325 327 327 328 329 329 330 329 330 330 330 330 330 329 330 331 332 332 333 335 335 336 335 334 335 336 336 336 336 337 338 338 337 336 336 337 338 337 335 334 333 333
322 326 329 326 329 333 330 330 334 335 334 336 335 331 333 333 334 335 335 339 338 337 337 336 337 339 340 340 337 334 334 335 337 335 335 335 334 335 334 333 332 333 334 333 333 334 335 336 336 336 335 335 335 332 323 319 322 322 323 326 328 328 328 328 329 330 330 330 329 329 330 332 333 332 333 334 334 335 334 334 334 335 336 336 337 337 337 338 337 336 335 336 335 334 334 333 333
324 328 328 326 329 331 330 333 336 338 336 335 334 333 334 333 334 336 336 339 338 337 336 335 336 339 340 340 337 334 334 336 337 335 334 334 334 334 333 332 332 334 333 333 333 333 333 333 335 335 336 336 336 336 329 322 324 326 324 322 324 326 327 328 329 330 331 330 330 329 330 333 334 333 333 333 333 334 334 334 334 333 335 336 336 335 335 337 337 336 335 334 333 332 333 333 333
326 328 335 332 331 333 330 331 338 340 336 334 334 331 334 334 335 336 334 338 338 334 334 335 335 338 339 339 338 336 335 336 336 335 334 333 332 333 332 332 333 333 332 333 334 334 333 331 332 334 334 334 334 335 334 331 331 332 330 326 325 327 328 329 331 332 332 333 332 331 333 336 337 337 336 334 334 333 334 334 334 334 333 334 335 335 335 336 337 338 336 334 333 332 331 331 331
327 328 342 338 331 335 332 331 335 333 332 332 331 330 335 334 334 334 332 334 336 333 335 336 336 338 338 338 339 337 337 336 335 333 333 332 331 331 331 331 332 332 332 333 333 333 333 332 332 334 335 334 334 335 334 333 333 332 332 331 330 330 331 332 333 333 333 334 334 334 336 338 338 338 338 336 336 335 334 334 334 334 334 334 335 337 336 334 334 337 337 336 334 333 332 331 329
326 327 339 335 332 336 331 331 331 327 331 332 332 332 334 333 332 333 331 333 336 335 337 337 336 338 338 338 338 337 337 335 334 332 331 331 329 329 329 329 331 332 333 332 331 332 332 332 332 334 335 333 332 333 332 332 332 332 332 332 332 333 333 333 333 333 333 333 334 336 337 338 337 336 337 337 338 337 336 334 332 333 334 334 335 336 336 334 332 333 336 336 334 333 333 333 331
328 327 334 335 334 335 329 330 330 330 332 333 334 333 333 334 333 331 332 334 336 336 338 338 337 337 338 338 338 337 336 335 335 332 332 332 330 330 329 328 329 331 332 332 330 330 330 330 331 332 332 330 327 327 328 329 331 331 331 332 333 333 333 333 333 333 333 333 334 336 336 336 336 336 336 336 336 336 336 334 331 332 332 332 333 334 334 334 333 332 333 334 334 333 333 333 334
331 330 334 337 335 332 330 331 329 331 332 333 334 332 332 334 332 331 335 335 335 337 338 337 337 337 337 337 337 337 337 337 336 333 332 332 330 331 329 328 328 328 329 330 330 329 328 328 330 331 330 328 326 325 327 328 329 329 329 331 331 331 331 331 332 333 333 334 333 334 334 335 335 335 336 335 335 336 335 335 334 333 331 331 332 333 334 334 334 334 332 332 332 333 333 334 335
330 331 334 336 335 331 332 334 331 330 331 334 333 331 331 332 332 332 335 335 334 337 338 338 338 337 336 337 337 337 338 337 335 333 332 330 330 330 328 328 328 327 327 328 329 329 328 328 328 329 329 328 326 326 327 328 328 327 328 329 329 330 330 330 331 332 332 333 333 333 333 333 333 334 334 334 336 336 334 336 337 335 334 334 334 333 334 336 336 335 335 334 333 334 336 336 336
328 330 332 334 333 331 331 333 331 330 334 335 331 330 331 330 332 332 333 335 335 336 337 337 338 337 336 336 337 337 337 337 335 333 332 331 331 328 327 328 327 327 327 327 328 328 329 329 328 328 328 328 326 326 327 328 328 327 327 326 325 327 329 329 329 330 330 331 331 331 332 332 332 332 333 332 335 335 333 335 336 335 336 337 337 336 336 338 337 335 337 337 337 337 337 337 336
329 330 330 329 330 330 330 331 330 330 335 334 330 331 332 331 332 331 332 335 336 335 335 336 336 336 336 336 336 337 337 337 336 334 333 333 331 328 328 327 326 326 326 327 327 328 328 328 328 328 328 327 327 326 326 327 326 326 325 324 324 324 325 326 327 328 329 329 330 329 329 330 330 331 332 331 332 333 333 334 334 334 334 335 335 335 336 336 335 334 335 336 336 336 336 335 335
330 329 329 328 327 328 331 332 330 328 332 333 331 330 331 332 333 332 333 334 335 333 334 334 334 335 336 336 336 336 336 336 335 335 335 332 327 327 326 326 326 327 326 327 327 328 328 327 327 328 327 327 326 326 325 325 324 323 323 322 322 321 323 324 325 327 328 328 328 328 328 328 329 329 330 330 331 331 332 333 334 334 333 333 333 333 333 333 333 332 332 333 333 334 333 334 334
330 330 328 328 328 329 330 329 329 327 328 330 330 330 330 332 333 333 333 333 333 333 333 334 335 335 335 335 335 336 335 335 334 333 333 330 328 327 327 327 327 327 327 327 327 328 328 327 327 327 327 326 325 325 324 324 323 322 321 321 321 321 322 323 323 325 326 326 326 326 326 327 328 328 329 329 329 329 330 332 333 334 334 333 333 332 332 333 333 333 333 333 333 334 333 333 334
331 332 329 328 329 328 328 328 328 327 328 327 328 330 330 331 332 332 333 332 332 333 333 334 335 335 336 335 334 335 334 334 333 332 331 328 328 328 327 328 328 328 327 326 326 327 327 327 327 328 327 326 325 324 323 323 323 322 321 322 322 322 321 321 322 323 324 325 325 324 325 327 326 326 327 328 328 328 328 329 330 333 334 334 333 332 332 334 335 334 333 334 333 334 333 333 334
331 332 330 329 329 328 329 329 328 327 328 327 328 329 329 330 330 333 333 331 332 332 332 333 334 335 336 334 333 334 333 333 333 333 330 327 326 327 327 327 328 328 327 326 326 326 326 326 327 327 327 326 325 324 324 323 323 322 323 323 323 323 322 322 322 322 323 324 323 323 324 325 325 325 326 326 327 327 326 327 329 330 332 334 334 332 333 334 335 334 334 333 333 333 333 334 334
330 331 329 328 329 328 329 329 328 328 327 327 329 329 329 329 331 334 333 332 333 333 334 334 335 335 334 333 333 334 333 332 332 332 329 327 326 326 326 327 327 327 327 327 326 326 326 326 327 328 327 326 325 325 324 324 324 323 323 323 323 323 323 322 323 323 324 323 322 322 322 322 323 324 325 325 325 325 325 326 327 328 330 332 333 333 333 333 334 335 335 334 332 333 334 334 334
330 331 328 328 329 329 329 329 329 328 327 327 329 328 329 328 331 333 332 333 333 334 335 335 335 334 333 333 332 332 332 332 331 330 329 329 328 325 325 327 327 327 327 327 326 326 327 327 327 327 327 327 325 325 325 324 324 323 322 323 324 324 323 322 323 323 323 323 322 321 321 321 322 322 323 323 324 324 325 326 326 327 329 330 332 333 333 334 334 333 335 336 334 333 334 334 334
329 328 328 329 329 328 328 328 327 327 327 326 328 329 329 329 330 330 330 332 332 334 333 332 335 333 332 333 331 331 333 332 331 331 331 330 329 327 326 327 325 326 327 327 327 327 327 327 327 327 327 327 326 325 325 325 324 323 323 323 323 324 324 323 322 322 322 322 322 321 321 321 321 321 321 322 323 323 324 325 326 327 329 330 331 332 332 334 334 332 333 335 335 334 335 334 334
327 327 329 331 328 327 328 327 325 326 327 326 327 326 327 329 330 329 330 331 330 332 332 330 332 333 333 332 331 331 332 330 331 332 332 331 329 328 328 327 325 325 327 327 327 327 327 327 327 327 326 325 325 325 325 325 325 324 324 324 323 323 323 323 323 322 322 321 321 321 321 320 321 321 321 321 322 322 323 325 326 327 329 329 330 331 332 333 333 333 333 334 334 335 336 335 335
328 327 328 329 324 323 327 326 325 328 327 327 328 324 325 329 329 329 330 331 331 330 329 330 330 329 332 333 332 331 331 331 331 331 332 331 330 328 329 328 326 327 328 328 328 327 326 327 326 326 326 325 325 325 325 325 325 325 324 324 323 323 323 322 322 322 321 321 320 321 321 321 322 322 321 321 321 322 323 325 326 328 328 328 329 330 330 331 332 333 333 334 334 335 335 335 335
328 324 322 325 321 322 327 326 326 327 326 327 328 323 325 328 328 328 329 330 331 329 328 329 329 329 331 331 333 332 331 331 330 331 330 331 331 330 330 329 328 328 328 328 328 327 326 326 326 326 325 326 325 325 325 325 326 325 324 324 323 323 322 322 322 321 321 321 320 321 321 321 322 322 321 321 321 322 324 326 327 327 327 328 328 329 329 330 331 331 331 332 333 334 334 334 335
330 325 319 322 322 321 323 326 327 326 326 327 327 324 326 328 327 328 328 328 329 329 329 329 329 330 330 330 332 331 331 331 330 330 330 330 332 331 330 330 329 329 329 329 328 327 326 325 325 326 326 326 325 325 326 326 326 326 325 324 323 323 322 322 322 321 320 320 320 320 321 321 322 323 322 321 322 322 325 327 327 326 326 327 328 329 329 329 329 330 330 331 332 333 333 334 334
324 325 322 323 325 321 319 324 326 326 327 327 326 326 326 327 327 327 328 328 329 328 329 329 329 330 331 331 331 331 332 331 330 331 330 330 332 331 331 331 330 330 330 330 329 328 327 326 325 326 326 326 325 325 326 326 326 326 325 324 323 323 322 322 321 321 320 320 320 320 320 321 322 323 322 322 322 323 325 327 326 325 326 326 327 328 328 328 328 329 329 330 330 331 332 334 334
320 323 324 321 321 319 319 322 325 327 327 326 326 326 327 328 328 328 328 328 328 328 328 328 329 331 331 330 330 329 330 331 330 332 332 331 332 332 332 332 331 331 331 331 331 329 328 327 325 325 326 325 326 326 326 326 326 326 325 325 324 323 322 322 321 320 320 320 320 319 319 320 321 323 323 323 323 324 325 326 325 324 324 325 326 328 328 328 328 328 329 329 330 331 331 333 334
322 324 323 317 315 317 320 322 324 328 327 325 325 325 326 328 328 328 328 328 329 328 329 329 329 331 331 330 329 328 329 331 331 332 332 332 333 332 332 332 332 332 331 331 332 330 328 327 326 325 325 325 326 325 326 326 325 325 326 326 325 323 322 322 321 320 320 319 319 319 319 320 321 322 323 323 324 325 325 325 325 324 324 325 326 327 327 327 327 327 328 328 328 329 330 332 333
323 323 320 317 315 316 321 323 323 326 325 323 325 325 325 326 327 328 327 328 328 328 329 329 330 330 329 330 330 329 329 331 331 332 333 332 333 333 332 332 332 332 332 332 332 331 330 328 327 326 326 326 326 326 326 326 326 325 326 326 326 324 323 322 321 320 320 320 319 318 318 319 320 321 323 323 324 325 325 325 325 324 325 325 326 326 326 327 326 326 327 327 328 329 329 331 332
324 321 318 317 316 318 321 322 323 326 325 323 325 326 326 326 326 327 327 328 327 326 328 328 331 331 329 329 329 329 329 330 331 332 333 333 333 334 333 333 332 332 332 332 333 332 331 329 328 328 327 327 327 328 328 327 327 327 327 327 326 325 324 323 322 321 320 319 319 318 318 319 320 320 322 323 324 325 324 324 324 323 325 325 325 326 325 326 326 326 326 326 327 328 328 330 331
322 320 319 315 316 321 322 322 324 324 324 324 326 327 326 327 327 327 327 327 326 326 326 327 329 330 329 329 329 330 330 331 332 333 334 334 334 334 334 335 334 333 333 333 333 333 331 330 328 328 328 327 327 328 328 328 327 327 327 327 327 326 324 323 323 322 321 320 319 319 317 318 319 320 321 322 323 324 324 323 323 323 324 324 324 325 324 324 324 325 325 325 326 327 328 328 329
321 319 316 313 316 320 317 320 325 324 325 324 325 326 326 327 328 327 327 327 327 327 327 326 327 327 327 329 330 331 331 331 332 333 335 336 334 335 334 335 335 334 334 334 333 333 332 330 328 328 328 327 327 327 328 328 327 327 327 327 327 326 326 325 324 323 322 321 320 319 317 317 319 319 320 322 322 323 323 323 323 323 323 323 323 323 322 322 322 323 324 324 325 326 327 327 328
318 317 315 313 316 318 317 320 325 326 325 325 324 321 322 326 328 329 328 327 327 326 327 326 325 326 326 328 329 330 330 330 332 333 335 336 335 334 334 335 335 334 334 335 334 334 332 330 328 328 328 328 328 327 328 328 327 328 328 328 328 327 327 326 325 324 322 321 320 319 318 317 318 319 320 321 322 322 323 323 323 323 323 322 322 322 322 321 321 322 323 324 324 325 326 326 327
315 317 317 316 318 319 319 322 324 321 319 324 322 315 318 326 326 327 327 328 329 326 327 326 325 325 324 326 327 327 329 329 330 332 334 336 335 335 334 334 335 335 334 335 334 333 332 331 330 329 329 329 329 328 328 328 328 328 328 328 329 328 327 326 326 325 323 322 321 319 318 317 317 319 320 321 322 322 322 323 322 323 323 322 321 321 321 321 321 322 323 324 324 325 325 325 327
313 317 318 319 320 319 320 321 319 316 317 324 321 317 325 331 325 327 327 327 330 326 327 327 325 326 324 325 326 326 328 330 331 331 331 334 336 336 335 335 335 335 334 335 333 333 332 331 330 330 330 330 329 328 329 329 329 329 329 329 329 329 327 326 327 326 323 322 322 320 319 318 317 319 320 321 322 322 322 322 322 322 322 322 321 321 321 320 321 321 322 323 324 324 324 325 325
314 319 320 319 320 320 320 319 318 318 317 324 324 320 327 327 321 325 329 326 330 328 327 327 325 327 326 325 326 325 327 329 330 330 330 332 334 335 335 335 335 335 334 334 333 333 333 332 331 330 331 331 330 329 329 330 329 330 330 330 329 329 328 326 326 326 324 323 322 321 319 318 318 318 319 321 322 322 323 322 322 322 322 322 321 321 320 320 320 320 321 322 323 323 323 324 324
317 319 319 319 321 321 321 319 317 319 317 318 322 315 322 327 326 326 330 326 328 329 327 328 326 326 326 325 325 325 326 327 327 329 330 331 333 334 335 335 335 335 335 334 334 334 333 333 333 332 332 332 330 329 330 330 330 330 330 330 330 329 328 327 326 326 325 324 323 322 320 319 318 318 318 320 321 322 323 322 322 322 321 321 321 320 320 320 319 320 320 321 321 322 322 322 323
319 320 321 322 323 322 322 321 316 317 317 315 318 312 317 329 329 323 327 325 324 329 329 328 327 326 325 324 324 325 325 325 327 330 331 330 332 333 334 335 334 334 334 333 333 334 333 332 332 332 332 332 330 329 331 331 330 331 330 330 331 330 328 328 327 326 326 326 324 322 321 319 318 318 318 319 319 320 322 322 322 322 321 321 320 320 320 319 319 319 319 320 320 321 321 321 321
319 321 322 320 324 324 322 323 318 316 316 314 316 313 314 328 331 323 325 325 322 327 328 328 328 326 326 325 324 324 323 324 328 329 330 330 331 332 332 333 332 333 333 332 332 333 334 333 332 332 331 331 331 331 332 332 332 332 331 330 331 331 329 329 328 327 326 326 325 323 322 320 318 318 317 317 318 318 320 322 322 321 321 321 320 319 319 319 319 318 318 319 319 319 320 320 320
321 322 321 318 322 322 316 318 318 315 316 314 314 313 314 324 329 325 326 326 323 326 327 328 327 326 326 325 325 324 323 324 326 327 329 331 332 331 331 331 331 332 332 332 331 330 332 334 334 333 333 333 333 333 334 334 333 333 332 332 331 330 331 330 328 328 326 325 325 324 323 321 319 318 317 317 317 317 319 320 321 321 321 320 319 319 318 318 318 318 318 318 318 318 319 318 319
323 320 317 314 316 316 312 313 314 313 314 314 314 314 313 318 323 323 327 326 323 325 325 326 326 325 325 325 326 326 325 324 324 325 328 331 332 332 330 331 332 333 332 333 332 330 330 331 333 335 335 335 335 335 335 335 334 334 333 333 332 331 331 330 329 328 326 325 325 324 323 322 321 319 318 317 317 317 318 319 320 321 320 320 319 318 318 318 318 317 317 318 317 318 318 318 318
320 316 312 311 313 314 312 313 314 313 313 313 315 314 313 318 325 325 326 325 325 325 324 324 326 326 325 325 325 326 325 325 325 325 327 329 330 330 329 329 331 332 332 333 333 332 331 330 331 333 334 335 336 335 335 335 335 334 334 333 332 331 331 331 330 329 328 326 326 325 324 323 322 320 318 317 317 317 318 318 319 320 320 319 319 318 318 318 317 317 317 317 317 317 317 317 318
321 319 316 313 313 313 312 312 313 312 312 313 316 314 312 319 327 325 323 324 324 325 325 325 326 326 326 325 325 324 324 325 324 325 327 328 328 328 328 328 329 329 330 331 332 332 331 331 332 332 333 334 334 335 335 335 334 333 334 332 331 331 331 331 331 330 329 327 326 326 325 324 323 321 319 318 317 317 318 318 319 320 320 319 319 318 318 318 317 316 317 318 318 318 318 318 318
322 322 319 316 315 313 312 313 312 312 315 315 314 313 316 323 326 322 323 323 323 324 325 326 327 326 325 325 324 323 324 324 324 326 328 328 327 327 327 327 327 327 328 329 329 330 330 330 330 331 331 332 333 334 334 334 334 333 333 332 332 332 332 332 331 330 329 328 327 326 325 324 323 322 320 318 317 317 317 317 318 319 319 319 319 319 318 318 317 317 317 317 317 317 317 318 318
321 319 317 318 320 318 313 313 314 315 315 315 313 312 316 321 324 324 324 323 323 325 325 326 327 325 325 326 324 323 325 323 323 325 327 328 328 327 327 327 327 326 327 328 328 328 328 328 328 328 328 329 331 333 333 333 333 333 333 333 333 333 333 332 330 329 329 329 329 328 326 325 323 322 321 319 318 317 317 317 317 318 319 319 319 319 319 319 318 318 318 318 318 317 316 317 318
319 315 316 319 319 320 318 314 315 315 313 312 312 312 313 316 320 325 325 324 324 324 325 326 326 326 326 326 325 324 325 323 323 325 326 328 327 326 326 325 325 325 325 326 327 328 328 328 328 328 328 328 328 330 330 330 331 332 332 333 333 333 333 331 330 329 329 329 329 329 327 326 324 322 321 319 318 317 317 316 316 318 319 319 319 319 319 319 318 318 318 318 318 318 317 317 317
321 318 319 319 314 315 317 315 313 312 312 312 311 311 312 313 316 322 325 325 325 325 326 325 325 327 326 325 326 326 326 325 325 326 326 327 326 325 325 324 324 325 325 325 326 327 328 328 328 328 327 327 327 328 328 329 329 329 329 330 330 330 330 329 328 328 329 329 330 330 327 326 325 323 322 320 318 317 316 316 316 317 318 318 318 318 318 318 318 318 318 319 319 319 318 318 318
324 323 323 322 318 315 314 314 312 312 312 312 310 311 313 315 318 323 325 325 325 325 326 325 325 326 325 325 326 327 329 328 325 325 327 328 326 325 324 324 324 325 324 325 326 326 327 328 328 328 327 327 327 327 328 328 328 328 328 328 328 328 328 328 328 328 329 330 331 329 327 325 325 324 322 320 319 317 316 316 316 316 316 317 317 317 318 318 318 318 318 318 318 318 318 318 318
322 321 321 321 321 318 317 316 315 314 312 312 312 312 313 318 323 325 325 324 324 324 326 326 325 325 326 327 327 327 329 330 327 325 326 328 328 326 325 325 325 325 325 325 326 326 327 327 327 327 328 328 328 327 328 328 329 329 329 328 328 327 327 328 328 328 329 330 331 330 328 326 325 324 323 321 320 318 317 316 316 316 315 315 316 316 317 317 317 316 317 317 318 318 318 318 318
321 320 321 319 319 318 317 316 316 315 312 311 312 311 314 321 324 325 323 322 323 324 324 325 324 326 327 327 328 328 329 331 332 328 326 328 328 326 326 327 326 325 325 325 326 326 326 326 326 327 327 328 328 327 328 328 329 329 329 329 329 328 328 329 329 329 329 330 331 331 330 327 325 325 324 322 321 319 317 316 316 316 316 316 315 315 316 316 315 315 316 316 317 318 318 317 317
Wind_Speed
11 10 9 9 10 9 9 7 5 5 6 7 9 9 10 14 14 16 9 4 1 3 6 5 6 8 7 6 12 16 17 13 8 3 1 4 10 14 15 15 17 18 17 15 15 15 14 13 13 14 13 12 12 11 11 11 11 11 11 10 10 11 11 11 11 11 10 10 9 9 8 6 4 4 3 3 4 3 3 2 2 2 3 2 2 1 1 1 3 6 7 6 5 6 7 7 7
9 9 9 10 11 9 5 6 6 6 7 8 9 10 11 14 14 12 2 8 7 7 7 6 8 8 5 5 12 13 15 16 13 8 4 8 12 15 15 15 17 18 18 17 15 14 14 13 13 14 13 11 11 10 10 10 9 10 10 10 10 10 10 10 10 10 10 10 9 8 8 6 4 4 3 2 3 3 2 2 2 2 2 1 1 1 1 1 4 6 6 4 5 7 8 7 7
11 10 10 11 10 8 4 6 7 7 8 9 9 10 13 13 5 4 12 13 10 8 5 4 5 7 8 4 9 10 10 12 13 7 3 6 7 10 14 16 18 19 18 16 15 15 15 14 13 14 12 10 9 9 9 8 8 8 8 9 9 9 9 9 9 9 9 9 8 7 6 6 5 4 3 2 2 2 2 2 2 2 2 1 1 1 1 2 5 7 6 5 5 6 6 6 6
14 12 12 11 7 7 6 6 7 8 8 8 6 4 4 1 8 13 12 10 8 4 2 2 3 11 14 12 10 10 8 6 7 4 2 5 7 11 15 16 17 17 15 14 15 16 16 14 13 13 11 10 9 9 8 8 7 7 8 8 8 8 8 8 8 8 8 8 8 7 6 6 6 4 3 1 1 2 2 2 2 3 2 2 2 2 1 2 6 6 6 5 4 5 5 5 5
14 14 14 12 6 5 5 6 7 8 9 9 5 4 10 11 12 10 9 8 6 2 2 3 4 12 16 13 7 4 2 1 6 7 4 7 11 14 17 17 15 15 15 15 15 15 14 13 12 11 10 10 10 9 9 8 7 7 7 8 8 7 7 7 7 7 7 7 7 7 6 6 5 4 3 1 1 1 1 1 2 2 3 3 3 2 2 0 4 5 5 5 5 5 5 6 5
13 14 14 12 6 5 5 6 8 10 8 7 3 7 11 10 8 5 5 4 4 4 4 3 6 12 12 8 7 5 2 1 5 7 5 9 13 15 18 18 17 18 16 16 15 13 13 13 12 11 10 10 9 9 8 8 7 7 6 7 7 7 7 7 7 6 6 6 6 7 7 5 5 5 4 2 0 1 2 2 2 1 2 3 3 3 2 1 3 4 4 4 5 4 5 5 4
14 10 8 8 6 6 7 8 9 9 1 8 7 9 8 7 3 2 2 3 4 4 3 6 10 15 7 3 7 7 4 3 5 6 7 9 13 17 18 17 18 19 16 15 14 14 13 12 11 10 10 9 9 8 8 8 7 7 6 6 6 7 7 7 7 6 6 6 6 7 7 6 4 5 4 2 1 0 1 2 2 2 2 2 2 2 2 1 1 3 3 3 3 3 4 3 3
15 9 4 7 6 5 7 9 9 5 4 9 8 8 6 5 3 2 4 4 3 2 7 12 15 13 3 2 6 6 7 9 8 9 10 11 14 17 17 16 17 17 16 15 13 13 11 10 9 9 9 8 8 7 7 7 7 7 7 7 7 7 7 7 7 6 6 6 7 7 8 6 4 3 3 2 1 0 1 2 3 3 2 2 3 2 2 2 1 2 3 3 4 4 4 3 3
14 8 5 7 7 6 7 9 8 1 5 6 6 2 3 4 3 3 4 2 1 4 13 14 13 9 4 9 9 6 8 10 10 9 10 12 14 15 17 18 18 18 17 15 13 13 11 10 10 10 9 8 7 6 6 6 6 6 6 7 7 6 6 6 6 6 6 7 7 7 7 6 4 3 2 2 1 1 1 3 3 3 3 3 3 3 3 3 2 1 3 3 4 6 5 4 4
9 7 6 6 7 7 7 6 3 5 9 8 4 3 2 3 2 4 1 1 2 8 16 14 14 11 7 10 8 5 5 8 10 10 10 12 13 14 17 18 18 18 16 14 13 13 12 12 12 11 10 9 8 6 6 6 6 6 6 6 6 6 6 6 6 6 6 7 6 7 6 5 3 2 2 2 2 1 1 2 3 3 3 3 4 3 3 4 3 0 2 2 4 6 5 5 4
6 7 6 7 6 5 5 4 5 8 9 8 6 7 6 4 3 1 2 1 10 15 14 9 10 12 10 8 6 6 4 7 11 11 13 14 15 14 15 17 16 17 16 13 11 10 11 12 12 12 11 11 9 7 6 6 6 6 6 5 6 6 6 7 6 6 6 7 6 7 5 4 3 1 1 2 1 1 1 2 3 3 3 3 4 4 4 4 3 1 1 2 3 5 4 4 3
6 6 4 4 4 2 4 3 7 8 7 6 7 7 6 6 5 4 3 7 14 18 10 5 3 6 9 7 6 8 3 5 10 13 16 17 17 15 15 15 14 14 14 12 10 9 8 9 9 10 9 10 11 9 7 6 6 6 6 6 6 6 6 7 6 6 6 6 7 6 5 4 4 3 1 0 1 1 1 1 3 4 3 3 4 4 4 4 3 2 2 2 4 4 4 4 2
6 5 1 3 4 1 1 4 5 7 4 3 5 3 4 5 5 7 11 14 15 14 5 1 3 3 8 6 6 7 1 2 8 12 16 17 17 15 15 14 13 13 12 11 10 9 9 7 6 7 7 8 9 10 10 8 8 9 8 7 6 6 6 6 6 5 5 6 6 6 5 4 4 4 3 2 2 2 2 2 3 4 3 3 4 4 4 4 4 4 3 3 4 5 5 4 3
5 1 2 2 6 2 4 4 4 3 2 1 2 3 2 3 8 13 15 17 13 7 1 1 3 5 7 6 7 6 3 5 6 10 14 15 15 15 15 14 13 12 11 11 10 10 10 9 7 6 6 6 7 8 9 10 11 11 11 9 7 6 6 6 7 7 6 7 7 6 5 5 4 5 4 3 3 4 4 4 4 4 4 4 4 4 4 4 4 4 4 4 4 5 6 5 5
2 4 3 2 6 6 4 3 6 5 5 2 2 4 5 9 12 16 14 13 8 2 1 4 5 2 3 4 7 7 9 10 8 9 10 13 14 15 16 14 13 12 11 11 10 10 9 9 8 7 6 5 5 5 6 9 10 10 11 10 9 7 7 8 8 9 8 9 9 7 6 6 3 4 4 3 5 6 5 5 5 5 5 5 4 4 4 4 4 4 5 6 6 5 6 6 6
4 5 3 3 4 2 4 1 6 7 4 4 2 2 8 12 11 14 9 9 9 7 7 7 6 3 4 5 11 13 14 14 12 10 9 13 14 14 16 14 14 13 12 11 10 9 8 8 7 7 7 5 4 4 4 6 8 8 9 10 10 9 8 9 9 10 10 11 11 9 7 6 5 4 3 2 4 5 5 7 6 6 6 6 5 4 4 4 3 4 5 6 7 6 6 6 6
2 2 2 1 2 2 4 3 4 2 4 2 7 10 9 5 6 11 8 10 12 12 11 8 8 8 9 10 14 16 15 14 16 15 12 13 14 14 16 15 14 12 11 11 10 10 9 8 7 7 6 6 5 4 5 6 7 6 7 8 10 10 10 10 11 11 11 11 11 11 9 7 7 5 3 2 3 3 4 6 6 6 6 7 6 5 5 4 3 4 5 6 7 6 6 6 6
1 1 2 2 1 5 4 4 3 6 4 5 11 7 4 2 4 6 6 11 13 12 10 9 11 10 10 12 12 12 11 9 11 12 6 6 7 8 12 15 16 13 12 11 10 10 9 9 8 8 7 7 7 7 6 7 8 6 7 7 8 9 9 9 9 9 9 9 10 10 10 8 8 5 3 2 4 4 3 5 6 6 6 6 6 6 6 4 3 3 3 5 7 6 6 6 6
4 3 4 2 3 4 1 4 6 7 2 6 12 5 4 4 4 5 5 8 9 10 9 9 11 10 10 10 10 10 8 7 9 8 9 9 2 6 8 12 14 13 13 11 10 10 9 10 9 9 9 8 8 9 8 8 9 8 8 8 7 8 8 8 8 8 8 9 10 10 11 10 9 7 6 5 5 5 4 6 7 6 6 5 5 5 5 4 3 3 2 3 5 5 6 6 6
5 4 5 2 8 4 3 4 7 7 5 9 10 6 9 7 5 5 6 6 7 8 6 8 10 10 10 9 9 9 7 9 11 9 10 5 8 5 9 10 11 12 13 12 10 10 9 10 10 10 9 9 8 9 9 9 10 10 10 10 9 8 9 9 9 9 9 11 11 11 12 11 11 10 10 10 7 7 6 6 7 7 6 5 5 5 5 4 4 3 2 2 3 4 6 6 7
1 3 3 7 11 5 6 7 8 10 10 11 7 7 10 8 7 6 5 5 6 5 4 7 11 10 11 9 8 8 7 9 9 7 8 4 10 3 11 9 11 12 12 12 11 10 9 9 9 10 10 10 9 9 10 10 10 10 11 11 11 10 10 10 9 9 10 11 11 12 13 12 12 10 11 13 9 8 9 7 7 7 8 6 5 6 6 6 6 4 3 3 3 4 6 8 9
4 4 5 7 7 4 7 6 5 9 14 13 7 9 8 6 8 7 6 5 5 5 6 9 12 12 11 10 9 7 8 7 6 4 3 8 6 7 9 8 10 11 12 12 10 10 9 9 8 9 10 10 10 9 10 10 10 10 11 12 12 12 12 11 10 10 11 11 11 13 13 13 12 11 12 13 11 9 10 9 8 6 7 8 7 7 6 6 7 6 5 5 4 5 6 8 8
3 6 7 4 6 6 7 6 6 8 14 15 9 9 8 8 10 9 7 5 7 9 10 11 12 13 12 11 10 7 7 5 3 2 5 6 8 7 8 8 9 10 12 11 10 10 9 9 9 8 8 9 10 9 9 10 10 11 12 12 13 14 13 12 12 11 11 11 11 13 14 14 13 12 13 13 13 11 10 10 9 8 7 8 7 7 6 6 7 5 5 5 5 6 7 7 7
4 3 6 8 8 7 8 8 10 10 14 15 11 10 8 10 10 10 10 8 9 12 12 13 13 14 14 12 10 8 7 4 2 5 5 5 7 6 6 7 9 10 11 10 10 9 8 9 8 8 8 8 9 9 9 9 10 11 12 12 13 15 14 13 13 12 11 11 12 13 14 15 14 13 14 13 13 13 11 11 11 10 8 8 6 6 6 7 8 7 6 6 5 6 7 8 7
3 3 4 8 8 9 10 8 10 11 11 13 13 12 11 11 9 10 12 11 11 12 13 14 13 13 12 11 11 9 6 2 2 5 4 6 6 5 6 7 9 9 9 9 9 8 8 8 7 8 8 8 8 8 9 9 9 10 12 13 13 14 15 15 13 12 12 11 13 15 13 14 14 13 15 14 14 15 13 11 11 10 8 8 6 5 7 8 8 8 6 7 7 7 7 7 7
3 5 6 9 7 10 9 8 10 10 7 9 13 13 12 11 9 9 10 12 13 12 11 13 12 12 10 10 11 9 6 2 4 6 5 8 6 5 5 6 7 8 8 8 8 8 7 7 8 8 7 8 7 8 8 8 9 10 11 12 12 13 15 15 14 12 12 12 13 13 12 14 14 13 14 14 14 14 14 13 11 9 9 8 6 5 5 7 8 7 6 7 8 8 8 8 7
5 4 7 9 8 8 8 9 9 9 6 6 11 13 11 8 6 7 7 10 13 13 12 12 9 8 9 10 9 7 7 5 8 8 9 9 8 6 5 6 7 7 7 7 8 7 7 7 7 7 7 7 7 7 7 7 9 10 11 11 11 12 13 14 14 13 11 12 11 11 12 13 13 13 13 13 14 14 15 17 13 9 10 10 10 8 5 7 8 6 6 7 7 8 8 8 7
8 7 8 9 9 7 8 9 7 7 7 7 9 11 12 9 8 8 7 7 9 10 12 14 12 9 9 10 8 5 6 10 12 9 9 8 7 8 6 5 7 6 5 6 8 7 6 6 6 7 6 6 6 7 7 7 8 9 11 11 11 11 12 13 13 13 11 11 11 12 13 13 12 13 13 12 13 13 14 16 14 11 11 10 12 12 9 9 8 5 5 7 7 7 8 7 6
3 3 5 7 8 8 7 9 9 8 8 8 6 7 10 10 10 11 8 5 6 8 6 8 13 13 12 12 10 9 10 12 12 8 7 4 4 6 6 6 7 6 6 6 7 7 5 5 5 6 5 5 6 6 6 7 8 9 10 11 12 11 11 12 13 13 12 11 12 12 12 13 14 13 13 12 12 13 13 13 14 13 12 12 13 13 12 11 10 6 5 8 7 6 8 7 6
4 2 2 3 5 7 7 8 9 9 8 6 3 2 9 9 11 11 8 6 7 8 4 4 8 11 11 11 11 11 11 11 11 8 7 6 5 5 5 6 6 3 5 7 7 6 4 4 4 4 4 4 5 5 6 6 7 8 9 11 12 13 12 11 12 13 12 12 12 11 12 13 14 14 13 12 11 11 12 12 13 12 14 14 13 13 13 13 11 8 7 7 7 6 7 7 7
3 0 1 0 2 5 7 5 5 7 6 4 1 3 7 8 10 9 7 8 7 7 5 2 4 5 7 10 10 10 9 9 11 11 10 8 7 7 7 6 5 3 6 7 7 6 5 4 4 4 4 3 4 4 4 5 6 7 8 9 11 12 13 12 12 13 13 13 12 12 13 13 13 13 12 12 11 11 12 12 11 11 12 13 13 13 13 12 11 11 11 10 9 8 8 7 7
2 1 2 1 1 5 9 5 3 6 4 5 5 4 7 8 9 8 7 7 6 6 5 3 4 3 3 6 8 8 6 7 11 13 11 10 10 9 9 7 6 6 7 6 5 5 5 4 4 4 4 3 2 2 3 4 5 5 6 9 10 8 10 12 12 13 14 14 13 13 14 13 13 13 12 12 11 11 12 12 12 11 10 12 14 14 13 11 11 12 13 13 12 12 11 9 7
4 0 1 1 2 3 8 7 8 5 1 5 3 3 7 7 7 8 7 5 3 5 5 3 4 4 3 3 4 6 5 5 9 11 10 10 12 11 9 8 7 7 7 7 6 5 5 4 4 4 3 2 1 1 2 3 3 5 5 7 10 7 9 12 12 13 14 14 13 13 13 13 12 11 12 12 10 10 12 11 12 12 11 13 14 14 13 11 11 13 14 14 13 14 13 12 10
2 2 3 5 4 2 4 6 10 6 1 3 2 4 8 7 7 6 5 7 5 4 4 2 2 2 2 2 2 3 4 4 5 8 8 7 9 9 8 8 7 7 6 6 6 5 5 4 4 4 3 1 0 1 2 3 3 5 5 5 8 9 8 10 11 12 13 13 14 13 11 11 11 11 11 11 10 10 10 10 11 11 12 13 13 14 14 12 13 14 15 14 13 14 14 13 12
6 5 5 6 5 4 4 5 7 6 5 5 4 6 10 8 8 6 5 6 4 5 4 2 3 4 2 2 1 0 2 4 4 6 8 7 7 8 7 8 8 7 7 6 6 6 6 6 5 4 3 2 1 2 3 3 4 4 5 5 7 7 6 7 8 10 12 14 14 12 10 11 12 12 11 11 12 11 9 10 12 12 12 11 12 13 14 13 14 15 15 14 15 14 13 12 12
7 7 3 4 7 5 7 7 3 1 2 4 6 7 10 8 8 7 5 5 3 4 4 3 4 3 1 1 2 2 0 2 4 5 8 8 8 8 7 7 8 8 8 7 7 7 8 7 5 5 4 3 2 3 4 4 5 6 7 5 5 5 6 6 7 10 11 12 13 12 11 11 11 11 11 11 12 11 10 11 12 12 12 12 14 14 14 14 14 15 15 14 15 14 13 12 11
2 4 4 6 7 6 9 7 3 5 5 4 6 7 9 9 7 8 5 4 3 3 4 4 6 4 2 3 2 2 1 1 3 5 7 7 7 8 7 7 8 9 9 9 8 8 8 7 6 5 5 4 3 4 5 5 6 7 7 5 5 7 7 7 7 10 10 9 12 13 11 10 10 10 10 10 10 10 10 11 13 12 12 14 15 14 15 14 13 15 16 15 14 14 14 12 13
4 4 4 6 8 6 8 6 4 7 3 2 3 5 9 9 6 6 3 3 4 4 3 3 7 7 4 5 4 2 1 0 2 5 6 6 7 8 8 7 8 9 10 10 10 9 9 8 8 6 6 7 5 5 5 4 6 7 6 6 7 6 5 6 7 7 7 8 11 12 11 10 9 10 10 9 9 9 10 12 13 13 13 14 14 14 15 15 14 16 18 17 16 15 14 14 15
3 4 2 3 6 5 5 5 3 4 2 1 5 6 6 7 6 4 3 4 6 5 4 3 3 6 4 5 5 3 3 2 2 4 5 6 7 7 8 7 8 9 10 10 10 10 9 10 10 8 8 9 6 6 5 3 6 7 5 6 7 5 4 4 6 6 5 8 10 11 11 11 9 9 11 9 8 9 10 12 13 13 12 13 13 13 14 16 16 17 17 18 18 17 15 15 16
3 4 2 3 6 4 3 3 4 5 4 2 7 6 1 4 6 3 3 4 4 4 4 4 5 5 3 5 7 5 4 3 2 3 4 6 7 7 8 8 8 9 9 10 11 10 10 11 11 9 10 10 9 8 6 3 6 7 5 6 6 5 4 4 6 7 7 8 10 9 11 12 10 9 11 11 9 9 10 11 12 13 13 13 13 13 14 16 16 16 17 17 19 18 16 16 16
4 7 6 5 5 4 3 4 5 6 6 5 3 3 2 3 4 6 4 3 3 4 5 6 6 6 6 7 7 6 5 4 3 4 4 5 7 8 8 8 8 8 9 10 12 11 10 11 10 10 11 12 10 8 7 6 6 7 6 8 8 6 5 4 4 6 6 7 8 9 10 12 11 9 10 10 10 9 10 10 11 12 12 12 13 14 14 16 16 16 17 18 19 18 17 17 15
5 7 7 7 7 4 4 3 3 3 3 3 1 0 2 1 1 5 4 4 6 5 6 8 6 6 7 7 5 5 7 5 3 4 4 6 7 8 9 9 8 8 9 10 12 11 10 10 10 10 12 13 12 9 7 6 6 7 7 8 7 7 6 4 2 2 4 6 8 8 9 10 11 10 9 9 9 9 9 10 10 10 11 11 12 13 14 16 17 17 17 17 17 18 18 16 16
4 6 7 5 4 4 1 1 2 1 1 1 3 2 3 4 1 6 3 5 8 4 6 8 7 7 6 6 4 4 6 5 5 5 4 5 6 7 8 9 9 8 8 10 11 11 12 12 11 12 12 13 13 11 8 7 8 10 9 7 7 7 5 2 2 1 1 4 6 7 7 9 10 10 9 8 8 10 9 9 9 9 10 10 11 12 13 15 16 16 16 16 16 17 17 15 15
4 7 6 3 5 6 5 3 0 0 1 3 6 3 3 1 2 6 3 4 6 5 6 6 7 7 4 5 3 2 6 6 6 6 4 4 5 6 7 8 8 8 7 8 10 11 12 12 11 12 11 12 13 12 10 10 11 11 8 7 7 8 6 3 3 3 1 1 3 5 6 8 8 8 9 9 8 9 9 9 9 9 9 10 11 11 12 13 14 15 15 15 15 15 16 15 15
6 7 5 4 5 5 4 4 2 1 2 1 4 4 2 0 2 4 4 5 4 5 7 6 6 7 5 4 1 1 7 6 5 6 4 5 5 5 5 6 6 6 6 6 8 11 13 13 13 13 12 12 13 12 11 12 14 12 9 8 8 7 6 4 4 4 2 1 2 4 5 6 5 6 8 8 8 7 7 8 8 9 10 10 11 12 12 12 13 14 15 15 14 14 14 14 15
5 5 5 3 4 3 3 5 3 2 2 1 1 3 4 1 2 1 3 4 3 4 6 5 5 6 5 1 1 4 6 5 7 7 6 7 7 6 5 4 4 4 5 5 6 10 13 13 13 14 14 13 14 13 12 13 14 13 11 10 9 8 7 5 3 3 2 2 1 3 4 5 4 5 7 7 8 7 6 7 7 8 9 10 10 11 12 12 13 13 14 15 14 13 14 14 14
4 7 7 6 5 2 2 3 4 3 2 2 3 4 4 2 3 1 4 5 4 3 6 6 4 7 6 1 2 6 4 4 10 9 8 10 8 7 5 4 4 3 3 4 5 7 10 12 13 14 16 15 14 13 14 14 13 13 12 11 9 9 8 6 4 4 4 4 2 2 4 4 5 5 5 6 8 9 7 6 6 7 8 9 10 11 12 12 12 13 14 15 14 14 15 15 14
6 6 4 3 2 2 3 2 0 2 2 3 3 4 4 1 2 2 6 6 5 4 5 6 3 5 5 3 5 5 3 5 9 8 9 10 8 7 5 3 3 2 2 3 3 4 6 9 11 13 14 15 14 13 14 13 12 13 12 11 10 10 8 5 5 5 4 4 3 2 3 3 5 5 4 7 9 10 8 6 6 7 7 8 9 10 11 12 12 13 13 14 14 14 14 15 15
5 4 3 3 3 3 3 2 1 2 3 4 6 6 3 2 3 6 8 8 6 6 6 7 6 6 4 2 5 3 2 3 4 5 7 7 7 8 7 6 6 4 3 3 4 3 3 4 7 9 11 12 13 12 12 13 13 13 12 10 10 9 8 6 5 5 5 4 4 2 3 3 6 5 4 7 9 9 7 7 7 6 7 7 8 9 10 11 11 12 12 12 13 13 13 14 14
5 5 4 4 3 4 4 3 3 3 2 2 4 4 2 4 4 7 10 8 7 6 7 8 6 7 3 2 2 3 5 6 4 5 7 3 4 6 5 5 8 8 5 4 3 3 3 3 4 6 8 9 11 11 11 12 12 12 11 10 9 9 9 8 6 5 4 4 4 3 3 3 5 6 6 8 8 7 7 7 6 6 7 7 8 8 9 10 10 11 11 10 11 11 11 11 12
5 4 4 4 4 4 4 4 4 5 6 4 3 4 3 4 1 6 10 8 7 7 9 6 3 6 3 1 1 2 2 6 4 7 8 4 4 5 4 3 3 5 6 5 4 3 3 3 3 4 4 5 9 11 10 10 9 10 11 11 10 10 9 7 5 4 4 3 3 3 3 3 4 4 5 6 6 7 6 5 5 6 6 7 7 7 8 8 8 9 11 10 10 10 10 10 11
4 5 3 3 4 3 4 3 4 4 6 4 2 3 4 5 4 8 7 6 8 6 7 7 5 6 1 1 2 4 6 7 4 8 8 5 6 5 4 2 1 1 3 6 5 4 4 3 3 3 3 2 6 8 8 8 8 9 10 10 10 9 7 6 5 4 4 4 3 3 2 3 4 4 4 3 4 7 7 3 4 5 5 6 6 7 8 8 7 8 9 10 10 11 12 12 12
5 4 3 5 4 5 4 2 3 2 4 3 2 3 4 6 4 6 4 5 7 5 5 7 7 4 0 3 4 4 7 7 5 7 7 5 6 3 3 3 3 1 1 4 5 5 4 3 2 3 3 2 3 5 5 6 7 8 8 9 9 8 7 7 6 5 5 5 5 4 3 3 4 5 5 2 5 7 7 2 3 4 4 5 6 6 8 8 7 8 8 8 9 9 10 11 12
5 4 5 6 3 1 2 2 2 3 4 1 2 3 2 4 2 4 5 5 4 3 5 5 5 4 2 5 5 4 8 6 4 6 6 5 5 3 2 1 1 3 2 1 2 4 4 3 3 4 4 3 3 3 3 5 5 6 6 7 7 7 7 7 6 7 7 7 7 6 5 5 5 5 5 2 3 7 7 3 4 4 5 4 5 6 7 7 7 7 8 8 8 8 9 10 11
4 5 3 3 2 1 1 2 3 4 4 3 3 3 3 5 3 4 6 6 3 3 4 2 4 6 4 5 7 6 6 3 0 5 6 5 4 4 5 1 1 3 2 3 2 3 4 4 5 5 4 4 4 3 4 4 4 5 6 6 6 7 7 7 7 7 7 8 8 7 6 7 6 6 5 3 3 4 4 3 6 6 6 5 6 7 7 7 6 6 7 8 9 9 9 11 11
2 3 1 0 2 3 3 3 3 4 4 4 6 5 3 5 5 6 7 6 3 4 4 4 5 5 4 5 5 6 5 1 2 3 6 6 4 3 4 1 3 1 3 4 3 1 3 5 6 6 5 4 4 4 4 4 5 6 6 6 7 7 8 8 7 8 8 9 9 8 7 7 7 7 6 6 7 6 2 3 5 7 7 6 7 7 8 7 6 6 7 7 8 9 10 11 11
2 3 3 3 2 2 2 3 1 3 4 3 4 4 4 5 4 6 7 5 2 2 3 3 2 3 6 5 4 4 4 3 3 3 3 5 5 3 3 2 3 5 3 5 4 3 4 6 7 7 6 6 5 5 5 6 6 6 6 7 8 8 9 9 9 9 10 10 10 9 8 7 7 8 7 8 10 9 4 4 4 5 7 8 8 8 7 6 6 8 9 9 8 8 9 11 12
4 4 4 5 4 4 4 2 2 4 5 4 4 3 4 5 4 6 5 2 2 2 3 2 1 5 7 5 4 3 2 3 3 1 1 3 5 4 5 5 6 7 3 5 3 4 5 6 7 8 9 9 6 6 6 7 7 7 7 8 8 9 9 10 10 10 11 11 11 10 9 8 8 8 8 9 10 8 5 3 3 4 6 8 8 8 8 7 9 11 11 10 9 8 8 10 12
Wind_Direction
215 213 203 202 209 235 224 209 229 202 231 246 244 247 241 235 238 258 248 111 41 56 56 45 27 21 9 39 87 70 42 30 30 40 45 79 79 75 88 91 94 104 93 84 91 94 90 84 83 83 77 69 67 63 59 55 53 53 52 52 49 48 45 43 45 45 47 47 44 39 37 33 16 10 18 12 6 17 17 339 330 327 323 330 319 13 104 170 164 168 162 151 150 146 147 149 139
221 218 213 218 221 237 218 193 238 215 214 235 241 243 248 247 231 243 280 80 75 67 52 47 52 28 2 79 94 71 49 38 43 63 59 76 81 72 82 94 102 104 92 88 92 99 98 93 90 87 79 68 66 62 59 56 53 53 50 50 49 48 47 44 41 40 42 43 43 41 39 36 22 17 24 17 27 47 30 333 328 328 322 340 335 24 77 134 151 160 153 147 156 149 152 153 137
218 218 209 213 220 230 228 193 232 235 219 230 233 229 236 250 243 74 61 67 75 81 54 44 67 23 353 24 59 54 49 32 29 40 41 57 74 77 85 91 98 99 95 98 100 101 97 93 90 83 77 69 67 62 59 57 54 53 50 50 48 47 45 42 40 36 36 38 38 39 37 32 34 38 42 43 46 58 44 3 347 346 339 357 359 25 59 137 149 155 150 145 154 151 149 145 135
226 238 213 201 213 217 233 211 222 244 236 237 234 261 287 37 64 62 64 66 69 81 56 30 78 52 41 36 41 56 52 31 27 35 79 51 73 97 98 96 97 96 96 102 100 95 91 89 87 82 81 78 74 72 67 62 58 54 51 50 45 43 39 36 36 33 32 33 32 34 34 30 39 51 55 56 48 52 43 13 350 350 347 354 7 8 12 140 158 160 150 147 150 151 145 139 138
235 252 229 207 211 204 222 222 222 239 241 250 242 20 29 49 55 51 49 52 60 52 38 50 79 70 61 44 21 49 48 84 60 57 100 75 81 102 104 103 102 100 99 99 95 89 89 90 91 90 88 83 80 78 76 70 63 56 52 48 43 38 33 29 25 24 26 27 26 26 32 36 42 48 54 65 30 21 20 2 351 348 345 349 3 8 356 130 170 172 161 158 156 153 148 146 148
229 243 233 225 250 266 249 232 226 228 241 289 314 57 53 47 28 37 59 52 50 40 33 32 87 83 72 65 59 53 310 210 68 46 79 83 89 102 103 104 103 100 97 96 97 97 97 96 95 90 83 77 76 75 75 72 66 61 55 51 45 39 35 30 24 19 17 18 18 17 24 36 43 38 37 66 72 2 345 339 341 332 339 348 1 11 357 324 179 187 182 164 162 160 151 147 142
226 232 215 223 257 268 256 249 237 229 318 23 39 49 53 64 12 310 96 98 58 58 58 33 79 89 83 98 77 50 14 96 95 60 79 89 94 102 103 104 103 100 100 98 100 106 105 101 95 85 77 72 70 68 70 70 67 63 58 56 50 45 42 40 35 24 17 13 9 12 18 27 40 34 33 61 125 294 323 326 323 312 320 339 346 360 354 331 188 193 192 168 171 171 160 157 144
233 244 204 209 228 224 237 251 243 232 60 52 53 33 13 58 50 355 40 60 32 32 57 48 71 89 86 56 73 68 62 83 91 84 93 98 101 108 110 109 111 110 112 110 108 108 105 101 94 89 84 76 72 69 67 65 62 59 56 53 47 42 38 42 41 32 25 17 12 12 15 25 42 41 43 63 77 242 295 311 310 310 313 326 330 339 347 356 39 187 194 189 190 183 178 179 162
230 242 235 224 234 232 228 238 247 274 60 58 77 74 334 28 45 53 34 53 119 55 61 63 82 97 113 86 88 99 77 81 91 95 97 98 107 113 114 115 115 115 116 117 113 106 101 99 93 92 90 85 83 75 69 64 60 55 52 48 42 37 32 36 38 33 26 22 22 18 16 23 48 63 58 72 74 43 308 301 304 312 315 320 330 338 346 360 17 195 209 212 192 183 184 181 167
220 226 240 236 238 247 245 253 277 45 28 2 61 95 26 34 23 64 51 170 86 63 66 68 89 106 122 96 93 104 92 99 99 99 101 104 110 108 108 113 115 113 116 117 110 101 95 89 83 81 78 78 80 76 74 66 62 55 51 47 42 36 29 30 31 25 14 14 22 28 28 25 45 80 79 88 99 70 325 310 304 305 316 320 327 335 346 358 9 340 235 238 195 188 190 182 169
220 217 228 245 250 264 276 328 14 40 28 351 23 29 7 11 349 3 222 53 49 56 55 38 80 104 105 91 91 103 107 109 104 105 108 109 109 102 96 102 108 106 112 119 113 105 97 83 74 72 67 63 61 63 66 63 60 55 49 43 39 34 28 27 27 20 7 6 13 27 34 23 23 51 97 109 139 182 278 326 316 308 319 319 326 330 336 348 357 343 253 238 206 199 205 199 178
246 235 228 270 273 296 287 29 25 0 21 6 13 16 340 347 332 311 5 48 57 67 55 6 95 116 99 96 101 102 86 100 113 116 115 112 109 108 99 97 104 104 110 119 116 111 101 81 65 63 63 56 50 46 45 48 47 44 39 35 33 28 24 24 27 25 14 5 6 18 22 14 12 3 2 356 219 241 257 321 327 326 328 314 322 325 323 329 333 324 269 237 224 215 224 236 225
249 260 352 323 274 172 11 54 34 345 8 8 350 2 329 335 336 348 37 49 50 69 66 2 123 102 89 100 101 97 62 124 131 123 116 111 107 109 107 102 101 103 106 108 111 110 103 96 75 60 57 49 45 36 35 44 45 37 28 26 27 25 21 18 23 25 22 13 3 8 14 15 20 7 349 340 326 303 297 312 325 334 328 313 318 315 311 310 311 313 302 266 244 238 244 260 262
235 291 78 314 304 9 80 84 73 360 299 227 307 314 8 4 10 17 46 61 49 62 163 320 83 91 102 122 114 116 179 180 160 132 122 116 117 117 111 106 102 102 102 101 103 104 103 101 92 75 64 53 46 30 28 42 49 40 28 23 23 24 21 19 23 22 20 16 4 359 9 15 32 21 2 6 350 328 315 309 310 322 317 309 311 308 309 303 302 303 300 292 269 255 258 270 268
286 39 62 11 360 356 2 69 130 167 247 193 234 278 39 30 38 44 54 82 87 75 66 34 29 80 151 150 116 132 163 163 156 136 131 121 122 121 113 112 111 108 105 103 100 100 99 94 91 85 84 81 68 48 31 32 39 40 31 24 22 23 25 28 26 22 14 8 7 0 4 10 23 11 354 17 8 347 334 326 311 308 310 305 301 304 311 299 294 299 300 301 292 277 271 276 272
59 75 64 26 50 335 305 309 181 178 194 183 212 9 45 12 35 71 71 96 104 71 59 49 39 96 130 111 113 130 150 155 141 134 150 138 133 129 120 118 116 113 110 105 99 95 89 89 89 83 82 81 73 67 50 21 18 31 31 21 20 23 26 28 22 18 9 359 3 359 353 347 335 334 329 338 356 345 333 333 322 310 303 295 293 295 303 295 283 290 299 303 301 299 290 284 279
93 125 104 107 96 215 229 201 224 113 106 98 43 49 71 10 29 84 79 71 83 76 67 63 65 88 98 101 113 126 143 150 143 150 175 156 138 133 128 128 123 117 114 107 103 96 85 83 80 78 74 67 57 49 50 21 4 15 23 9 12 21 19 20 15 13 7 354 354 349 343 329 320 314 304 293 303 315 316 322 320 315 309 302 303 299 296 290 281 284 287 294 299 308 307 301 295
339 354 72 104 147 224 206 146 136 89 88 69 65 57 90 91 45 82 75 64 80 88 83 81 79 82 90 98 108 119 132 136 130 138 145 91 106 144 146 140 133 124 117 107 101 96 86 77 69 67 62 57 51 43 45 27 14 19 22 7 8 17 10 13 13 11 8 358 352 348 349 343 332 316 305 308 303 315 304 313 329 324 323 323 318 313 312 308 300 296 285 282 286 297 302 302 302
29 63 69 36 257 250 21 92 105 99 123 103 104 111 93 80 47 68 79 79 90 94 97 98 93 98 100 98 104 108 106 79 65 80 67 38 334 193 143 124 122 119 114 106 97 90 82 73 63 59 56 55 52 46 45 33 29 30 28 20 16 15 8 8 11 13 14 6 360 353 354 350 345 340 333 325 314 321 288 297 324 323 321 323 318 320 321 327 325 310 303 282 278 288 295 301 301
23 62 87 193 241 265 48 96 98 107 112 92 101 88 74 76 70 74 79 87 87 90 116 121 113 121 118 112 111 102 83 73 73 85 83 48 268 205 112 108 109 106 106 103 95 86 80 73 62 57 56 56 55 50 46 39 36 33 28 23 18 15 12 10 10 16 15 11 8 360 360 358 353 351 345 338 326 325 316 303 305 306 309 303 309 316 305 308 314 299 301 291 284 291 287 282 272
75 106 138 192 209 205 105 109 110 126 112 91 107 91 75 74 82 90 88 88 77 86 142 132 127 131 125 122 113 101 89 84 87 97 105 184 241 142 100 109 107 109 108 101 94 87 81 75 66 59 57 57 56 53 49 41 38 35 28 23 20 17 14 11 12 14 10 9 10 4 4 6 1 353 350 348 339 328 335 333 312 304 304 297 292 291 284 283 286 275 269 270 270 276 268 261 259
145 158 210 194 180 134 82 87 100 119 111 104 104 88 89 90 80 74 79 93 86 102 133 126 127 130 130 128 119 111 101 92 91 100 161 198 192 93 96 110 112 116 106 99 95 89 82 78 73 64 58 57 57 56 52 45 39 35 28 24 20 16 13 11 13 11 7 6 10 9 6 4 1 358 354 353 348 341 343 345 332 317 308 305 293 286 283 273 276 267 253 249 251 269 270 266 269
152 161 196 154 117 113 107 112 93 85 96 103 101 96 105 99 87 79 83 97 101 112 126 124 124 129 133 130 125 120 105 99 113 212 239 176 137 125 140 133 120 113 104 104 100 93 86 78 75 71 64 59 58 57 54 49 42 38 32 26 20 16 15 13 10 6 4 6 9 12 9 1 359 359 357 353 350 350 349 348 340 331 320 306 293 293 295 280 285 276 255 259 258 268 270 271 277
22 156 175 127 121 121 104 97 92 78 84 102 118 117 98 83 88 92 98 110 117 122 128 126 126 132 134 130 128 119 109 122 170 237 237 136 124 134 131 113 103 101 103 106 100 94 89 82 78 74 70 63 59 58 56 49 42 39 34 30 26 20 18 12 4 3 2 5 7 8 9 2 360 358 355 352 348 349 350 348 341 336 332 320 309 302 301 293 293 286 279 290 287 279 272 272 280
12 232 155 123 126 106 96 95 93 76 77 99 107 103 90 88 91 90 104 122 126 127 131 133 137 136 132 129 125 118 120 139 226 238 198 115 113 116 105 100 101 102 104 105 105 101 94 92 89 81 74 69 63 61 58 51 43 39 34 31 29 23 19 14 7 8 4 3 6 5 6 1 0 357 353 353 347 347 350 345 339 337 333 330 332 312 296 293 291 288 293 302 304 305 297 291 288
211 218 123 121 115 104 107 95 84 73 76 107 107 103 99 103 100 86 102 122 129 137 138 139 144 138 132 131 128 130 135 126 266 238 145 119 130 128 125 131 123 116 118 118 112 106 103 100 92 86 80 74 69 64 57 51 45 37 34 29 28 25 19 18 15 13 8 5 4 3 4 359 358 355 352 354 347 345 345 337 335 340 339 338 346 336 295 288 293 290 294 303 304 310 311 307 298
200 199 119 120 115 110 104 90 95 102 101 97 97 98 96 101 92 87 102 116 133 148 146 143 141 137 133 130 128 132 139 163 221 201 146 149 152 142 167 158 131 124 133 130 117 111 109 102 90 84 79 74 68 61 52 45 41 36 34 27 24 26 20 19 18 14 12 7 2 7 9 358 354 353 352 353 344 340 339 336 339 347 345 342 341 340 320 302 296 276 276 295 298 296 299 301 299
178 169 124 118 118 106 103 105 105 108 97 69 80 94 97 95 86 96 108 115 139 139 138 145 140 149 148 135 134 145 181 189 192 176 155 166 146 150 184 145 124 138 135 117 113 115 108 100 94 85 78 73 64 54 46 37 35 32 31 25 20 23 21 19 18 13 12 7 5 14 13 1 354 351 349 349 342 335 333 339 345 349 349 344 337 333 328 317 305 286 268 277 290 293 290 293 293
104 124 111 119 125 103 93 99 86 80 85 79 91 95 82 82 88 102 113 129 144 109 109 144 136 150 156 149 157 168 188 180 167 161 153 159 123 148 169 135 155 171 131 112 113 118 117 112 103 93 86 77 68 54 43 35 33 33 31 25 17 18 19 18 18 14 11 11 5 10 12 0 355 353 348 345 342 335 331 337 341 347 353 346 338 332 330 326 317 322 303 277 285 299 295 295 292
43 348 14 104 121 95 67 69 77 73 86 107 168 104 76 79 91 104 128 143 130 110 137 181 132 139 140 141 157 160 164 158 155 158 146 157 169 161 158 152 181 190 132 140 136 133 139 130 118 107 99 85 75 59 45 38 34 34 31 25 18 17 17 14 18 14 12 14 5 11 18 1 353 354 349 345 342 332 327 333 337 346 351 345 342 337 336 339 333 336 339 310 300 307 304 300 292
125 208 318 68 91 99 82 60 82 83 101 125 24 57 85 92 104 114 143 146 134 129 153 169 100 108 123 136 148 149 155 157 158 161 155 162 175 172 168 170 179 140 133 150 142 146 157 146 142 132 121 103 84 68 51 42 37 39 34 24 15 15 18 15 17 15 13 13 6 13 18 3 356 356 350 346 340 328 328 336 345 350 348 345 348 344 338 342 340 340 347 339 328 322 312 298 288
222 125 76 89 13 115 110 102 101 79 104 115 63 70 99 98 114 129 140 142 150 139 129 111 97 104 132 145 145 142 153 165 164 171 176 165 166 177 172 176 183 147 140 154 153 157 163 161 160 150 147 132 101 84 57 37 28 31 26 16 5 8 25 19 13 17 18 14 5 11 16 5 358 356 352 350 340 333 338 345 350 352 349 349 351 349 345 342 341 345 347 346 339 330 320 307 299
259 216 105 192 266 135 120 127 120 82 92 139 100 71 92 98 110 123 132 121 108 110 109 134 149 154 163 155 149 142 143 165 171 178 186 165 162 175 175 182 189 164 151 157 165 176 175 173 171 164 163 156 132 95 37 9 358 1 4 8 357 1 36 26 15 20 22 17 8 9 13 4 357 357 356 355 349 343 347 350 349 353 356 355 353 353 353 349 348 350 346 344 340 333 328 324 321
203 159 204 209 204 154 116 128 125 117 196 154 146 84 90 105 108 108 125 112 100 107 124 177 155 119 131 130 134 135 142 163 171 170 175 166 160 170 178 184 184 174 162 153 164 184 188 184 181 176 176 181 197 313 329 324 325 347 2 0 349 359 29 28 21 21 21 21 12 7 8 1 358 1 357 350 349 347 347 348 349 357 359 354 355 358 357 355 355 354 347 342 339 333 326 323 326
169 171 212 192 152 127 95 92 117 155 184 145 123 101 100 109 112 110 110 101 98 112 126 140 82 55 49 39 357 28 154 161 164 163 164 168 170 174 184 184 181 180 172 166 173 183 195 199 193 189 194 213 257 300 294 302 309 319 334 344 351 2 13 17 31 31 24 22 13 4 6 3 359 2 358 348 348 349 351 353 354 360 360 355 358 1 359 357 356 353 348 344 340 336 328 322 326
161 162 166 114 104 93 83 76 70 113 214 127 103 96 102 107 111 111 108 105 102 110 114 114 109 108 164 269 291 282 246 142 150 161 163 171 177 178 190 189 184 184 177 179 189 196 201 201 196 194 200 225 251 283 288 298 308 303 305 331 350 342 343 5 46 42 22 20 16 6 7 7 2 358 356 354 354 354 356 357 358 359 357 2 7 3 357 355 354 352 347 345 342 339 337 333 335
83 116 88 81 92 85 79 75 58 57 17 33 88 97 97 95 100 99 104 124 121 132 138 141 144 153 196 180 197 234 276 91 151 159 162 173 180 179 189 194 185 184 182 184 195 206 203 200 204 202 206 220 241 273 289 305 313 308 308 326 330 323 337 356 28 33 19 23 23 12 8 8 2 353 352 357 1 1 360 358 360 359 356 4 9 1 356 356 357 356 351 348 348 345 344 345 346
31 47 63 74 78 66 68 64 66 93 80 3 71 98 99 95 101 102 111 119 69 49 73 118 161 171 186 165 166 191 166 79 172 162 162 174 181 181 186 197 193 188 189 190 195 201 199 201 206 206 216 220 234 265 269 296 307 305 311 323 325 329 344 340 353 15 25 34 26 15 10 8 3 354 348 355 6 10 7 1 1 1 360 5 6 1 2 2 2 2 358 356 356 352 351 355 357
37 49 56 62 68 62 73 83 83 92 98 329 64 69 91 94 94 83 62 87 67 48 61 47 142 156 160 153 153 160 144 138 157 163 173 176 184 190 190 198 201 193 191 194 198 202 199 200 203 206 222 226 231 256 258 279 293 288 294 311 322 331 338 327 328 346 23 35 26 18 9 4 9 360 349 355 11 15 9 1 0 1 2 4 1 1 6 5 2 2 1 359 358 356 356 358 0
8 26 20 69 87 90 76 78 78 52 354 327 78 73 110 103 107 114 61 77 98 117 117 69 73 103 110 136 145 146 137 132 144 168 180 174 183 197 198 200 201 196 192 194 199 204 204 203 206 210 221 229 229 240 242 236 269 277 282 289 292 293 301 310 323 345 19 29 22 22 16 10 11 4 354 355 5 12 8 1 360 1 4 5 2 2 6 5 1 360 1 2 0 358 354 351 356
47 28 14 33 54 72 79 70 67 43 333 299 84 108 185 138 140 145 123 103 105 105 99 69 60 91 101 110 130 133 104 78 103 151 173 183 187 192 201 201 195 198 196 192 193 198 205 207 211 213 221 233 235 234 228 215 241 261 265 272 272 269 273 272 305 347 16 30 27 26 26 17 9 8 1 353 359 6 4 0 1 5 8 8 8 5 3 2 360 0 5 5 1 359 352 346 353
76 42 19 22 7 19 86 116 98 45 311 276 278 336 65 333 194 120 121 128 97 62 81 85 66 67 78 84 92 95 89 79 88 126 171 193 193 188 195 196 192 203 202 196 201 202 202 206 210 211 218 234 237 234 227 213 234 245 238 249 261 268 274 266 263 332 5 26 31 27 32 26 16 13 4 356 360 360 358 359 360 5 8 8 9 6 2 1 360 2 5 2 358 358 355 351 354
56 35 25 33 330 318 340 230 109 62 258 300 319 337 57 304 236 104 90 115 105 87 96 99 85 67 62 81 88 91 103 118 124 124 160 179 187 189 191 195 196 206 204 198 205 204 200 203 208 207 213 231 233 229 222 204 218 235 232 232 242 250 256 250 222 215 357 16 21 22 35 33 22 13 3 360 4 357 356 358 357 360 3 0 1 3 2 359 358 358 358 358 356 355 355 355 353
23 22 7 336 306 318 341 333 341 38 40 29 328 309 111 257 169 121 111 99 108 131 116 87 85 92 82 88 93 115 116 124 130 123 132 148 167 184 193 201 200 206 209 200 196 196 200 203 205 206 211 223 225 222 216 206 215 230 234 234 238 245 247 236 221 220 247 17 13 13 35 36 23 17 10 2 0 358 356 355 355 354 355 354 354 0 2 356 353 353 352 353 353 352 354 354 351
18 16 346 342 336 322 330 316 293 338 20 62 282 290 70 149 197 132 129 132 140 140 118 92 98 107 88 80 3 104 116 122 116 113 121 130 138 154 182 198 194 202 208 204 196 195 205 206 202 208 213 218 224 225 220 214 218 223 230 237 241 249 247 232 219 218 226 275 360 2 25 32 23 28 26 10 358 359 355 353 351 347 351 354 352 359 360 352 349 350 349 348 347 350 351 351 352
5 335 280 261 264 263 312 324 342 348 297 273 329 31 47 295 241 138 122 135 125 111 112 105 118 121 99 109 248 92 98 105 106 114 115 108 114 128 149 168 174 194 201 210 205 194 206 214 212 216 218 220 227 229 222 219 220 221 230 236 239 245 237 221 221 217 218 242 312 348 359 17 36 49 40 24 8 358 347 348 348 343 348 352 353 357 354 349 350 347 345 344 344 350 352 354 359
297 277 268 254 247 266 317 312 352 345 308 359 27 62 67 341 288 53 80 77 55 74 118 118 125 132 123 315 33 69 40 69 106 118 114 107 110 116 125 142 152 171 187 211 219 194 200 208 211 219 222 221 227 229 223 220 221 225 231 237 243 251 239 213 220 227 226 240 253 316 328 357 32 31 29 37 21 1 348 346 349 345 346 352 354 353 349 348 350 347 345 347 350 357 358 0 3
260 266 289 306 297 293 269 233 293 326 358 10 10 42 58 20 297 84 89 90 71 48 92 107 103 108 97 31 54 64 8 71 105 120 118 119 121 121 128 128 125 159 190 208 233 223 209 203 204 215 220 220 223 226 224 221 224 230 235 241 248 256 252 229 222 227 236 252 250 277 307 334 5 7 38 51 24 0 351 347 344 342 345 351 350 349 349 348 349 348 347 351 355 357 359 1 2
265 297 318 327 340 329 331 5 320 324 11 7 15 17 33 77 76 94 102 107 91 54 58 77 79 75 50 34 100 132 196 93 98 117 114 124 140 145 154 154 155 178 206 213 223 237 240 225 215 217 221 222 222 226 229 225 227 234 239 246 252 255 256 247 234 229 239 257 259 274 287 311 344 357 47 47 16 355 355 353 342 335 337 341 345 348 347 344 350 352 348 352 355 354 357 358 357
317 350 350 326 353 345 343 358 331 346 357 10 25 351 18 72 53 84 96 98 90 84 81 63 66 88 50 336 108 198 188 138 119 109 100 103 130 133 137 147 159 167 182 204 220 235 254 261 243 234 233 227 224 230 235 232 232 237 241 247 251 250 250 245 235 230 233 244 255 271 286 296 327 355 39 43 14 353 356 356 340 332 332 335 342 348 345 345 354 352 346 348 349 347 349 350 349
317 1 339 322 23 355 337 357 344 352 347 358 23 337 39 84 93 89 90 99 101 106 106 90 106 122 121 268 3 313 127 111 93 93 94 86 87 100 103 96 136 158 170 177 195 219 240 270 267 258 256 234 230 236 238 239 239 242 245 247 246 239 240 239 228 228 234 235 250 269 277 268 286 334 15 33 11 344 346 6 350 330 331 333 336 340 338 342 348 345 343 346 345 342 341 342 344
332 351 315 338 35 341 321 331 315 339 335 327 339 335 71 106 111 92 93 116 116 114 121 127 130 113 116 182 49 12 71 74 57 90 101 104 93 99 121 125 150 165 164 166 185 207 213 248 265 270 274 232 232 235 235 243 242 241 245 247 246 237 233 236 226 230 239 229 238 259 259 252 267 300 323 7 23 338 324 3 4 326 325 327 326 331 331 332 334 333 337 341 341 341 341 343 341
326 328 336 1 5 333 336 307 270 289 283 266 350 350 95 112 98 94 98 119 126 135 134 130 118 99 16 92 56 20 68 58 39 87 100 108 108 127 154 169 184 146 122 162 177 202 206 229 254 270 279 266 249 238 234 248 244 242 244 240 243 241 234 235 229 232 239 231 232 238 240 243 250 273 295 346 31 345 316 349 23 319 310 314 311 319 322 322 324 322 325 329 329 333 336 336 333
312 332 353 340 296 278 340 300 270 297 298 2 19 318 91 98 115 129 104 103 122 115 115 130 128 124 120 97 80 38 62 50 37 93 100 103 120 148 116 42 89 86 5 315 185 195 199 231 249 249 260 263 267 258 243 246 241 245 249 244 247 249 246 245 237 233 234 232 229 225 230 232 234 269 298 326 8 331 307 344 9 300 266 286 299 300 305 307 313 318 320 319 318 319 318 317 321
312 331 340 323 295 269 297 304 318 316 322 359 336 306 74 72 83 111 90 86 76 43 69 66 85 102 91 88 101 94 83 59 52 121 119 117 132 136 114 31 269 147 211 227 183 187 197 220 238 245 257 256 258 261 250 245 243 249 255 254 254 253 251 249 243 241 237 233 229 223 229 230 231 262 283 272 286 291 280 357 358 310 268 259 263 268 282 291 297 306 311 312 312 314 310 308 312
245 286 250 142 332 334 330 311 307 314 323 340 334 341 69 69 57 77 75 69 49 23 41 36 53 88 74 64 88 99 101 73 2 88 109 115 116 106 107 85 309 283 201 164 135 227 235 230 229 233 244 252 255 257 256 256 251 248 248 252 256 252 251 247 242 246 244 239 234 226 227 229 228 242 256 271 276 264 260 12 353 327 311 293 276 271 269 270 280 294 302 304 307 311 310 311 314
317 314 347 351 343 344 310 266 272 327 325 338 331 340 77 75 51 81 84 72 59 31 53 40 21 100 97 87 82 82 102 101 39 39 72 117 127 141 152 167 262 261 195 147 167 225 241 239 234 230 229 235 251 255 259 266 263 259 254 252 254 252 250 249 246 247 246 243 240 233 228 226 226 232 242 270 280 278 303 340 325 317 318 314 314 308 292 287 304 307 300 291 289 298 306 310 315
336 339 358 353 349 345 309 290 25 360 328 336 317 311 77 61 32 68 81 83 116 113 100 69 12 103 104 108 112 99 101 114 111 98 274 126 130 166 186 184 243 258 206 140 173 227 245 239 234 235 224 214 226 250 252 254 257 260 262 260 259 258 255 253 252 250 247 243 242 239 231 223 225 230 233 250 277 298 317 303 275 293 307 302 305 310 310 314 311 305 301 296 290 289 297 306 311